Flag for Sierra Leone Weather past 2 weeks in Bo, Sierra Leone

Now
79 °F

Scattered clouds.


Feels Like: 82 °F
Forecast: 75 / 96 °F
Wind: 12 mph from Northwest

Location: Lungi


UV Index: 10 (Very high)

Visibility: N/A


Pressure: 29.86 "Hg

Humidity: 79%

Dew point: 72 °F

Location of BoLocation

Historic Weather in Bo

°F

Bo temperature yesterday

Maximum temperature yesterday: 86 °F (at 12:00 PM)
Minimum temperature yesterday: 81 °F (at 8:00 AM)
Average temperature yesterday: 84 °F

Past Weeks' High & Low Weather Summary

 TemperatureHumidityPressure
High88 °F (Apr 4, 1:00 PM)100% (Apr 10, 5:00 PM)29.95 "Hg (Apr 10, 5:00 PM)
Low73 °F (Apr 15, 7:00 AM)43% (Apr 11, 3:00 PM)29.74 "Hg (Apr 16, 5:00 PM)
Average83 °F73%29.84 "Hg
* Reported Apr 4 8:30 AM — Apr 19 8:00 AM, Bo, Weather by CustomWeather, © 2014

Note: Actual official high and low records may vary slightly from our data, if they occured in-between our weather recording intervals... More about our weather records

Advertising

Historic Weather Conditions — Data for Previous 24 hours

 ConditionsComfort  
Time TempWeatherWind HumidityBarometerVisibility
8:00 AM
Apr 19
79 °FScattered clouds.12 mph79%29.86 "HgN/A
3:00 AM81 °FClear.16 mph79%29.80 "Hg10 mi
1:30 AM84 °FClear.14 mph74%29.83 "Hg10 mi
1:00 AM84 °FClear.12 mph74%29.83 "Hg10 mi
12:00 AM84 °FClear.14 mph74%29.83 "Hg10 mi
11:00 PM
Apr 18
84 °FPassing clouds.13 mph74%29.83 "HgN/A
10:30 PM82 °FPassing clouds.12 mph74%29.83 "HgN/A
10:00 PM82 °FPassing clouds.12 mph74%29.83 "HgN/A
8:30 PM82 °FPassing clouds.12 mph74%29.80 "HgN/A
7:00 PM82 °FPassing clouds.12 mph74%29.77 "HgN/A
6:30 PM84 °FPassing clouds.12 mph74%29.77 "HgN/A
6:00 PM84 °FPassing clouds.12 mph74%29.77 "HgN/A
4:30 PM84 °FScattered clouds.13 mph74%29.77 "HgN/A
4:00 PM84 °FScattered clouds.14 mph74%29.77 "HgN/A
3:00 PM86 °FScattered clouds.14 mph66%29.77 "HgN/A
2:30 PM86 °FScattered clouds.14 mph70%29.77 "HgN/A
2:00 PM86 °FWarm.1 mph70%29.80 "HgN/A
1:00 PM86 °FPartly sunny.14 mph70%29.83 "HgN/A
12:00 PM86 °FPartly sunny.9 mph62%29.86 "HgN/A
11:00 AM84 °FPartly sunny.9 mph66%29.86 "HgN/A
Weather by CustomWeather, © 2014

See weather overview